sat.trackr.live / text

‹ back to catalog

GJZ 03

NORAD 62292 · 2024-238C

PAYLOAD ACTIVE UNKNOWN

§ Identity

Operator
Country
PRC
Launch date
2024-12-12
Launch site
JSC
Launch vehicle
Mass (kg)
RCS (m²)

External: N2YO · Heavens-Above · Gunter

§ Orbital elements

Epoch: 2026-09-22T21:56:03.182208Z

Period
104.71 min
Inclination
59.9153°
Eccentricity
0.0025918
Mean motion
13.75217325 rev/d
Perigee alt
961.8 km
Apogee alt
1,000.0 km
Semi-major
7,359.0 km
B*
6.6216e-5
RAAN
335.2110°
Arg perigee
64.5103°
Mean anomaly
295.8582°
Rev number
8,933

§ Raw data

GJZ 031 62292U 24238C   26265.91392572 -.00000055  00000+0  66216-4 0  99942 62292  59.9153 335.2110 0025918  64.5103 295.8582 13.75217325 89332

JSON: /api/v1/satellites/62292 · /tle

For live sub-satellite position, see the globe view (requires WebGL).

§ Visibility from observer

Set your observer location to see the next 7 days of passes ≥ 10°. The values pass through the URL so the page stays shareable.

No JS? Fill the form by hand. The geolocation button needs JavaScript.